This is the latest recevied weather packets stored in our database for station/object KB4NWJ. If no packets are shown the sender has not sent any weather packets the latest 10 day(s).
| Time | Temp. | Humidity | Pressure | Rain* | Wind** | Luminosity | Snow |
|---|---|---|---|---|---|---|---|
| 1777407739 | 17.78° C | 96% | 1020.5 hPa | 0 mm | - | 160 W/m² | - |
| 1777407439 | 17.78° C | 95% | 1020.6 hPa | 0 mm | - | 151 W/m² | - |
| 1777407135 | 17.78° C | 96% | 1020.6 hPa | 0 mm | - | 156 W/m² | - |
| 1777406830 | 17.78° C | 96% | 1020.8 hPa | 0 mm | - | 194 W/m² | - |
| 1777406525 | 17.78° C | 97% | 1020.8 hPa | 0 mm | - | 203 W/m² | - |
| 1777406221 | 17.78° C | 97% | 1021 hPa | 0 mm | - | 183 W/m² | - |
| 1777405920 | 17.78° C | 97% | 1020.8 hPa | 0 mm | - | 241 W/m² | - |
| 1777405617 | 17.22° C | 97% | 1020.7 hPa | 0 mm | - | 157 W/m² | - |
| 1777405315 | 16.67° C | 99% | 1020.6 hPa | 0 mm | - | 156 W/m² | - |
| 1777405015 | 16.67° C | 98% | 1020.7 hPa | 0 mm | - | 158 W/m² | - |
| 1777404710 | 16.67° C | 98% | 1020.7 hPa | 0 mm | - | 113 W/m² | - |
| 1777404406 | 16.67° C | 98% | 1021.4 hPa | 0 mm | - | 124 W/m² | - |
| 1777404103 | 16.67° C | 98% | 1022.1 hPa | 0 mm | - | 114 W/m² | - |
| 1777403799 | 16.67° C | 98% | 1021.8 hPa | 0 mm | - | 92 W/m² | - |
| 1777403497 | 16.67° C | 98% | 1021.9 hPa | 0 mm | - | 89 W/m² | - |
| 1777403191 | 16.67° C | 98% | 1021.6 hPa | 0 mm | - | 97 W/m² | - |
| 1777402888 | 16.67° C | 98% | 1021.9 hPa | 0 mm | - | 104 W/m² | - |
| 1777402584 | 16.67° C | 98% | 1022.2 hPa | 0 mm | - | 116 W/m² | - |
| 1777402282 | 17.22° C | 97% | 1022.1 hPa | 0 mm | - | 124 W/m² | - |
| 1777401976 | 17.22° C | 97% | 1022.6 hPa | 0 mm | - | 125 W/m² | - |
| 1777401674 | 17.22° C | 97% | 1022.2 hPa | 0 mm | - | 190 W/m² | - |
| 1777401372 | 17.22° C | 97% | 1022.4 hPa | 0 mm | - | 123 W/m² | - |
| 1777401068 | 16.67° C | 97% | 1022.5 hPa | 0 mm | - | 188 W/m² | - |
| 1777400763 | 16.67° C | 96% | 1022.6 hPa | 0 mm | - | 197 W/m² | - |
| 1777400460 | 17.22° C | 97% | 1022.7 hPa | 0 mm | - | 212 W/m² | - |
* Rain latest hour (hover to see other rain measurements)
** Current wind speed in m/s (hover to see current wind gust speed)